Overview Statistics Trail Chart Weather Telemetry Raw packets
 

This is the latest recevied weather packets stored in our database for station/object NO9B. If no packets are shown the sender has not sent any weather packets the latest 10 day(s).

<< 55 56 57 58 59 60 61 >>
Time Temp. Humidity Pressure Rain* Wind** Luminosity Snow
1788288954 31.11° C 75% 1015.3 hPa 0 mm - 335 W/m² -
1788288653 31.11° C 74% 1015.4 hPa 0 mm - 451 W/m² -
1788288349 31.67° C 72% 1015.5 hPa 0 mm - 199 W/m² -
1788288044 31.67° C 74% 1015.4 hPa 0 mm - 235 W/m² -
1788287743 31.67° C 73% 1015.6 hPa 0 mm - 627 W/m² -
1788287439 31.67° C 73% 1015.6 hPa 0 mm - 630 W/m² -
1788287136 31.67° C 74% 1015.5 hPa 0 mm - 600 W/m² -
1788286836 31.67° C 74% 1015.6 hPa 0 mm - 204 W/m² -
1788286548 31.67° C 73% 1015.5 hPa 0 mm - 333 W/m² -
1788286234 31.67° C 71% 1015.4 hPa 0 mm - 292 W/m² -
1788285933 31.67° C 73% 1015.3 hPa 0 mm - 615 W/m² -
1788285628 31.67° C 72% 1015.5 hPa 0 mm - 605 W/m² -
1788285323 31.11° C 74% 1015.5 hPa 0 mm - 630 W/m² -
1788285022 31.11° C 75% 1015.5 hPa 0 mm - 199 W/m² -
1788284718 31.11° C 79% 1015.5 hPa 0 mm - 108 W/m² -
1788284414 30.56° C 76% 1015.5 hPa 0 mm - 108 W/m² -
1788284109 30.56° C 76% 1015.7 hPa 0 mm - 116 W/m² -
1788283805 30.56° C 78% 1015.8 hPa 0 mm - 568 W/m² -
1788283500 30.56° C 78% 1015.7 hPa 0 mm - 191 W/m² -
1788283198 30.56° C 80% 1015.8 hPa 0 mm - 446 W/m² -
1788282897 30.56° C 79% 1015.8 hPa 0 mm - 646 W/m² -
1788282595 31.11° C 80% 1015.9 hPa 0 mm - 612 W/m² -
1788282291 31.11° C 78% 1015.8 hPa 0 mm - 177 W/m² -
1788281990 31.11° C 77% 1015.8 hPa 0 mm - 570 W/m² -
1788281685 30.56° C 80% 1015.8 hPa 0 mm - 556 W/m² -

* Rain latest hour (hover to see other rain measurements)
** Current wind speed in m/s (hover to see current wind gust speed)